Date,TemperatureHighF,TemperatureAvgF,TemperatureLowF,DewpointHighF,DewpointAvgF,DewpointLowF,HumidityHigh,HumidityAvg,HumidityLow,PressureMaxIn,PressureMinIn,WindSpeedMaxMPH,WindSpeedAvgMPH,GustSpeedMaxMPH,PrecipitationSumIn
2013-1-1,61.1,45.6,35.1,44.0,36.3,29.0,95,73,37,30.28,30.11,4,0,0,0.00
2013-1-2,67.5,49.7,33.9,36.0,28.4,18.0,82,50,20,30.17,30.05,11,1,0,0.00
2013-1-3,73.0,44.7,30.3,47.0,31.3,16.0,88,66,12,30.22,30.08,4,0,0,0.00
2013-1-4,67.9,43.9,27.7,33.0,27.1,21.0,88,60,17,30.30,30.19,7,0,0,0.00
2013-1-5,65.0,44.2,28.8,39.0,30.9,25.0,87,65,24,30.32,30.20,5,0,0,0.00
2013-1-6,57.4,47.3,37.0,50.0,43.0,33.0,95,85,66,30.25,30.05,8,1,0,0.17
2013-1-7,70.3,49.5,36.5,46.0,37.2,28.0,97,70,21,30.11,29.98,4,0,0,0.01
2013-1-8,71.2,48.7,34.3,49.0,39.2,30.0,90,73,34,30.14,30.05,7,0,0,0.00
2013-1-9,70.0,51.0,36.5,52.0,43.9,34.0,95,80,41,30.17,30.04,5,0,0,0.00
2013-1-10,57.3,50.7,41.6,50.0,40.9,26.0,95,71,44,30.13,29.95,10,2,0,0.04
2013-1-11,56.9,39.5,27.4,34.0,25.2,-99.9,90,64,28,30.23,30.09,8,-20,0,0.00
2013-1-12,56.2,39.1,26.0,32.0,26.6,23.0,89,66,29,30.20,30.11,10,1,0,0.00
2013-1-13,56.8,39.0,26.2,35.0,25.4,23.0,91,64,28,30.20,30.09,6,1,0,0.00
2013-1-14,59.3,42.5,28.9,24.0,11.0,0.0,82,35,9,30.37,30.16,8,1,0,0.00
2013-1-15,61.0,41.9,26.8,30.0,22.0,15.0,74,49,21,30.48,30.34,7,1,0,0.00
2013-1-16,70.0,45.7,30.1,41.0,31.3,25.0,83,62,27,30.40,30.14,5,0,0,0.00
2013-1-17,78.9,50.4,35.3,34.0,27.3,18.0,83,50,11,30.18,30.07,6,1,0,0.00
2013-1-18,81.5,54.4,35.0,37.0,28.8,25.0,74,45,13,30.15,30.06,4,0,0,0.00
2013-1-19,80.4,52.1,34.4,35.0,29.1,24.0,76,49,13,30.20,30.08,6,1,0,0.00
2013-1-20,81.0,52.7,32.3,32.0,26.1,20.0,74,44,12,30.16,30.00,5,0,0,0.00
2013-1-21,78.8,47.3,32.5,39.0,25.9,14.0,71,49,9,30.11,30.02,5,0,0,0.00
2013-1-22,82.7,52.8,31.3,34.0,25.1,14.0,68,42,8,30.12,30.02,4,0,0,0.00
2013-1-23,78.4,59.6,43.8,48.0,36.7,29.0,66,46,21,30.16,30.04,7,1,0,0.00
2013-1-24,71.0,59.0,53.0,58.0,52.9,43.0,96,81,59,30.21,30.11,3,0,0,0.20
2013-1-25,63.2,59.7,56.8,62.0,58.7,55.0,98,96,93,30.13,29.96,1,0,0,0.43
2013-1-26,66.4,59.3,56.0,64.0,58.3,55.0,99,96,85,30.04,29.91,5,0,0,0.07
2013-1-27,58.7,53.0,43.7,55.0,49.7,42.0,97,89,68,30.07,30.00,11,2,0,0.02
2013-1-28,60.9,47.0,35.9,45.0,38.8,34.0,96,76,41,30.22,30.04,8,1,0,0.01
2013-1-29,60.4,44.9,32.6,44.0,37.6,31.0,96,78,50,30.27,30.18,6,0,0,0.00
2013-1-30,70.8,50.4,35.4,48.0,40.2,34.0,96,73,34,30.36,30.23,8,1,0,0.01
2013-1-31,79.5,55.2,36.9,49.0,42.2,35.0,95,68,28,30.27,30.09,6,0,0,0.00
2013-2-1,75.0,55.1,38.9,51.0,43.3,37.0,93,69,30,30.20,30.11,5,0,0,0.00
2013-2-2,74.1,58.7,46.2,54.0,48.6,43.0,90,72,38,30.21,30.11,6,0,0,0.00
2013-2-3,72.8,59.6,44.8,53.0,48.8,42.0,88,70,42,30.15,30.02,6,0,0,0.00
2013-2-4,69.5,53.0,39.5,55.0,47.3,38.0,95,82,55,30.11,30.00,4,0,0,0.00
2013-2-5,55.9,51.5,46.7,52.0,49.2,46.0,100,92,83,30.13,30.01,1,0,0,0.01
2013-2-6,63.1,53.7,41.2,50.0,47.1,39.0,91,79,60,30.14,30.03,5,0,0,0.00
2013-2-7,62.3,49.7,36.6,53.0,44.5,35.0,96,83,67,30.16,30.04,7,1,0,0.00
2013-2-8,53.2,48.7,44.0,48.0,44.3,42.0,94,85,71,30.05,29.93,9,2,0,0.24
2013-2-11,65.2,50.2,34.6,49.0,38.2,21.0,97,69,19,30.28,30.12,6,1,0,0.01
2013-2-12,64.2,45.0,30.0,48.0,36.3,28.0,92,74,37,30.37,30.26,6,1,0,0.00
2013-2-13,67.9,47.8,30.9,49.0,38.3,29.0,94,73,44,30.30,30.15,7,0,0,0.00
2013-2-14,75.8,52.0,32.7,51.0,41.3,31.0,94,71,38,30.23,30.06,6,1,0,0.00
2013-2-15,83.7,58.0,40.4,44.0,33.1,17.0,89,50,9,30.20,30.11,8,1,0,0.00
2013-2-16,82.8,58.8,40.1,40.0,28.7,21.0,67,39,12,30.16,30.00,7,1,0,0.00
2013-2-17,67.1,49.0,33.6,51.0,39.2,27.0,88,70,46,30.07,29.95,6,1,0,0.00
2013-2-18,63.9,52.9,41.8,49.0,45.4,39.0,90,76,57,30.09,29.99,6,1,0,0.00
2013-2-19,54.0,50.5,45.8,51.0,44.7,41.0,93,81,68,30.02,29.75,6,1,0,0.38
2013-2-20,58.0,48.0,38.1,44.0,38.4,32.0,93,72,42,30.05,29.74,10,2,0,0.00
2013-2-21,59.9,46.8,37.9,48.0,41.4,36.0,95,83,51,30.13,30.00,8,1,0,0.06
2013-2-22,64.4,47.1,32.2,49.0,39.4,31.0,96,78,42,30.24,30.13,7,1,0,0.01
2013-2-23,64.6,47.5,32.4,47.0,39.3,31.0,95,76,41,30.20,29.96,6,1,0,0.00
2013-2-24,71.5,51.1,35.2,49.0,27.2,7.0,96,55,8,30.23,30.02,5,1,0,0.00
2013-2-25,69.5,48.0,29.4,34.0,25.5,18.0,78,49,15,30.25,30.10,9,1,0,0.00
2013-2-26,69.9,49.4,29.7,49.0,35.9,25.0,85,64,29,30.14,30.00,5,1,0,0.00
2013-2-27,74.0,53.1,35.6,35.0,28.4,21.0,83,47,14,30.29,30.15,8,1,0,0.00
2013-2-28,80.4,55.9,33.9,36.0,26.0,17.0,72,40,10,30.33,30.24,6,1,0,0.00
2013-3-1,87.9,61.9,38.7,41.0,29.6,22.0,69,39,9,30.33,30.16,8,1,0,0.00
2013-3-2,85.4,61.4,40.8,44.0,32.2,27.0,74,41,12,30.23,30.09,7,1,0,0.00
2013-3-3,74.4,56.7,41.7,52.0,42.8,31.0,89,62,27,30.13,30.01,7,1,0,0.00
2013-3-4,69.1,56.4,45.3,52.0,49.0,43.0,92,78,54,30.13,30.04,7,1,0,0.00
2013-3-5,63.9,55.3,52.4,54.0,50.5,49.0,92,84,69,30.15,30.06,6,1,0,0.00
2013-3-6,63.9,55.2,48.3,50.0,46.3,42.0,92,74,51,30.18,30.05,7,1,0,0.00
2013-3-7,57.7,52.5,45.3,52.0,48.0,43.0,95,85,69,30.05,29.89,6,0,0,0.14
2013-3-8,56.4,51.0,46.7,49.0,45.6,41.0,96,83,61,30.07,29.80,5,1,0,0.80
2013-3-9,61.3,52.7,42.8,50.0,46.5,40.0,95,81,58,30.25,30.07,8,1,0,0.00
2013-3-10,73.3,53.9,37.5,52.0,42.1,36.0,96,69,29,30.30,30.16,7,1,0,0.01
2013-3-11,77.5,55.8,35.3,51.0,41.3,33.0,93,65,28,30.21,30.06,6,0,0,0.00
2013-3-12,81.0,57.7,38.1,56.0,45.6,36.0,94,69,24,30.12,30.00,4,0,0,0.00
2013-3-13,87.4,58.5,41.7,60.0,47.9,39.0,93,73,25,30.13,30.02,6,1,0,0.00
2013-3-14,86.0,60.8,41.5,59.0,50.5,40.0,97,74,34,30.11,30.00,6,1,0,0.00
2013-3-15,78.5,57.4,46.8,59.0,52.1,46.0,97,84,52,30.07,29.95,5,1,0,0.00
2013-3-16,68.5,55.7,48.2,54.0,50.5,47.0,96,84,59,30.01,29.91,6,1,0,0.00
2013-3-17,69.4,58.1,52.9,54.0,51.6,50.0,91,80,59,30.02,29.95,5,1,0,0.00
2013-3-18,66.1,58.1,49.6,53.0,50.9,46.0,87,77,60,30.11,30.01,8,1,0,0.00
2013-3-19,70.1,57.5,46.6,55.0,50.9,43.0,92,80,58,30.14,30.06,6,0,0,0.00
2013-3-20,73.0,58.8,45.9,55.0,50.5,44.0,95,76,50,30.12,30.00,5,1,0,0.00
2013-3-21,71.9,58.0,46.0,55.0,49.6,44.0,93,76,49,30.01,29.83,7,1,0,0.00
2013-3-22,69.4,58.4,46.8,55.0,51.1,43.0,92,78,59,29.95,29.84,7,1,0,0.00
2013-3-23,71.1,55.7,41.3,55.0,48.3,39.0,93,78,56,30.05,29.93,6,1,0,0.00
2013-3-24,77.3,57.8,42.9,55.0,48.0,40.0,94,74,35,30.04,29.90,5,1,0,0.00
2013-3-25,77.9,58.8,42.2,57.0,49.5,40.0,95,74,35,30.00,29.91,4,0,0,0.00
2013-3-26,71.7,57.3,49.7,57.0,51.3,48.0,96,82,53,30.00,29.92,5,1,0,0.00
2013-3-27,68.1,58.6,51.3,54.0,51.2,47.0,89,77,58,30.07,29.96,6,1,0,0.00
2013-3-28,76.0,61.1,51.3,56.0,52.5,49.0,91,76,47,30.09,30.01,6,1,0,0.00
2013-3-29,74.2,61.2,53.7,59.0,54.9,51.0,92,81,57,30.14,30.05,6,1,0,0.00
2013-3-30,73.7,61.1,49.9,58.0,54.3,46.0,92,79,55,30.15,30.06,5,1,0,0.00
2013-3-31,71.7,59.5,49.0,57.0,52.8,46.0,92,80,59,30.15,30.08,7,1,0,0.00
2013-4-1,69.3,59.6,52.0,54.0,51.4,49.0,90,76,53,30.19,30.10,9,2,0,0.00
2013-4-2,70.8,59.2,48.5,55.0,51.3,46.0,92,76,55,30.12,30.00,6,1,0,0.00
2013-4-3,77.3,59.0,46.0,59.0,52.0,43.0,91,79,51,30.11,30.00,7,1,0,0.00
2013-4-4,76.9,63.0,53.1,58.0,54.2,48.0,93,75,47,30.12,30.01,7,1,0,0.00
2013-4-5,68.0,60.1,52.1,57.0,54.9,47.0,94,83,68,30.11,30.02,7,1,0,0.02
2013-4-6,71.1,62.3,56.0,57.0,54.3,52.0,89,76,60,30.10,29.98,9,1,0,0.00
2013-4-7,72.1,56.8,43.6,56.0,50.4,42.0,94,80,56,29.99,29.84,6,1,0,0.00
2013-4-8,65.2,57.8,48.4,55.0,47.9,42.0,90,71,43,29.85,29.71,11,2,0,0.01
2013-4-9,74.2,55.9,38.8,50.0,37.2,26.0,91,57,19,30.04,29.85,7,1,0,0.00
2013-4-10,78.2,60.3,39.6,48.0,37.2,29.0,74,46,17,30.10,30.01,9,1,0,0.00
2013-4-11,76.0,58.5,40.5,54.0,44.3,30.0,83,62,27,30.04,29.82,12,2,0,0.00
2013-4-12,73.9,61.6,52.9,55.0,52.5,48.0,87,73,52,29.91,29.79,8,1,0,0.00
2013-4-13,60.2,58.0,55.4,56.0,53.6,50.0,88,85,82,29.93,29.86,6,1,0,0.00
2013-4-14,62.5,56.9,53.9,54.0,51.2,49.0,89,81,72,29.91,29.85,6,2,0,0.00
2013-4-15,62.6,57.7,54.8,54.0,51.5,48.0,87,80,69,29.93,29.87,7,2,0,0.00
2013-4-16,63.1,54.8,42.3,48.0,43.1,35.0,82,66,43,30.02,29.90,8,1,0,0.00
2013-4-17,73.2,54.8,35.3,38.0,30.4,23.0,86,47,18,30.14,30.02,11,1,0,0.00
2013-4-18,79.7,62.0,38.4,37.0,22.3,13.0,59,27,9,30.20,30.11,12,1,0,0.00
2013-4-19,84.9,63.2,38.4,34.0,21.6,13.0,53,26,7,30.18,29.98,7,1,0,0.00
2013-4-20,86.2,63.5,41.0,53.0,37.9,23.0,68,43,17,30.03,29.88,7,1,0,0.00
2013-4-21,82.2,61.1,43.1,57.0,48.1,37.0,85,65,29,30.04,29.96,8,1,0,0.00
2013-4-22,74.2,60.4,50.7,56.0,52.6,46.0,92,77,51,30.04,29.93,8,1,0,0.00
2013-4-23,74.6,61.7,52.4,55.0,51.7,47.0,83,71,49,30.00,29.87,8,1,0,0.00
2013-4-24,62.6,58.6,52.2,55.0,52.4,47.0,91,80,65,30.00,29.92,5,0,0,0.05
2013-4-25,72.6,61.2,51.3,57.0,52.4,46.0,95,75,49,30.14,29.99,8,1,0,0.01
2013-4-26,78.6,61.8,44.3,55.0,49.2,42.0,92,67,40,30.17,30.10,5,1,0,0.00
2013-4-27,79.4,63.3,48.8,60.0,53.7,45.0,91,73,50,30.18,30.00,9,1,0,0.00
2013-4-28,79.7,63.8,56.4,60.0,56.2,53.0,93,78,50,30.05,29.88,5,1,0,0.00
2013-4-29,75.3,62.5,56.8,59.0,55.9,54.0,92,80,55,29.93,29.80,8,1,0,0.00
2013-4-30,68.7,61.4,57.4,56.0,54.4,52.0,87,78,64,29.92,29.84,9,2,0,0.00
2013-5-1,76.6,62.5,57.7,58.0,49.6,-99.9,91,71,53,30.11,29.92,5,-41,0,0.00
2013-5-2,96.8,72.8,56.3,59.0,49.0,9.0,91,56,4,30.12,29.97,6,1,0,0.00
2013-5-3,94.1,70.4,45.1,56.0,35.2,7.0,75,40,4,30.03,29.79,10,1,0,0.00
2013-5-4,71.9,60.7,45.6,57.0,50.1,35.0,81,68,57,29.88,29.78,12,3,0,0.00
2013-5-5,68.0,61.7,58.8,56.0,53.7,51.0,86,75,57,29.97,29.85,11,2,0,0.00
2013-5-6,66.3,61.1,57.5,59.0,56.5,55.0,94,85,69,30.04,29.93,9,2,0,0.28
2013-5-7,69.8,61.3,55.0,58.0,53.9,50.0,94,78,50,30.10,30.00,6,1,0,0.12
2013-5-8,69.3,61.5,54.9,57.0,53.0,46.0,92,75,54,30.12,30.07,7,1,0,0.00
2013-5-9,71.9,61.2,47.8,57.0,52.8,45.0,93,75,57,30.12,30.05,8,1,0,0.00
2013-5-10,80.2,65.9,53.0,61.0,56.8,50.0,92,74,51,30.10,30.02,6,1,0,0.00
2013-5-11,88.7,68.6,53.5,65.0,58.7,51.0,94,74,41,30.10,29.98,7,1,0,0.00
2013-5-12,98.7,76.0,56.7,64.0,56.4,48.0,98,60,18,30.07,29.90,8,1,0,0.00
2013-5-13,101.2,79.8,56.1,62.0,50.4,46.0,71,41,19,29.96,29.87,9,1,0,0.00
2013-5-14,85.2,68.1,53.6,60.0,53.3,44.0,86,61,33,30.02,29.92,6,1,0,0.00
2013-5-15,74.4,64.6,57.5,59.0,55.6,52.0,85,73,56,30.05,29.98,7,2,0,0.00
2013-5-16,73.2,65.2,58.8,59.0,56.2,54.0,83,73,58,30.00,29.91,8,2,0,0.00
2013-5-17,72.2,65.7,61.4,59.0,56.4,54.0,83,72,60,30.02,29.92,10,2,0,0.00
2013-5-18,74.6,65.0,56.5,58.0,56.2,53.0,91,74,54,30.05,29.99,7,1,0,0.00
2013-5-19,76.4,64.3,51.0,59.0,55.0,48.0,90,73,56,30.01,29.90,7,1,0,0.00
2013-5-20,86.0,65.9,51.2,61.0,56.2,48.0,92,74,43,29.98,29.90,6,1,0,0.00
2013-5-21,83.6,67.9,59.4,62.0,59.0,56.0,92,76,45,29.96,29.85,7,1,0,0.00
2013-5-22,73.1,66.0,61.2,59.0,56.4,54.0,83,72,57,29.87,29.80,11,2,0,0.00
2013-5-23,70.9,63.8,57.2,56.0,53.9,51.0,85,71,56,29.96,29.84,10,2,0,0.00
2013-5-24,71.3,62.3,52.2,56.0,52.1,46.0,83,70,57,30.02,29.94,8,2,0,0.00
2013-5-25,73.5,60.2,45.0,56.0,50.9,42.0,90,73,50,30.04,30.00,7,1,0,0.00
2013-5-26,72.0,63.4,55.3,57.0,54.1,50.0,85,72,57,30.07,30.01,7,2,0,0.00
2013-5-27,74.9,63.1,48.5,59.0,54.1,45.0,90,74,55,30.03,29.89,8,1,0,0.00
2013-5-28,76.3,66.9,59.1,60.0,57.3,54.0,84,72,58,29.91,29.77,7,1,0,0.00
2013-5-29,81.4,67.9,57.0,62.0,58.1,52.0,87,73,52,29.83,29.74,10,1,0,0.00
2013-5-30,77.6,65.4,52.6,62.0,57.3,49.0,91,76,56,29.91,29.78,9,2,0,0.00
2013-5-31,81.2,68.5,61.8,62.0,59.5,57.0,86,74,51,29.92,29.82,9,1,0,0.00
2013-6-1,84.7,68.8,60.5,65.0,60.8,56.0,90,77,51,29.88,29.78,6,1,0,0.00
2013-6-2,71.1,64.9,62.0,62.0,59.5,57.0,90,83,68,29.86,29.79,7,2,0,0.00
2013-6-3,74.6,65.7,60.9,60.0,58.3,57.0,91,77,59,29.91,29.82,8,2,0,0.00
2013-6-4,76.5,66.7,61.6,60.0,58.0,57.0,87,74,54,29.98,29.90,8,1,0,0.00
2013-6-5,77.6,67.4,58.6,60.0,58.0,53.0,83,73,54,30.01,29.91,7,1,0,0.00
2013-6-6,77.6,65.5,54.5,61.0,57.2,50.0,87,75,56,29.96,29.88,6,1,0,0.00
2013-6-7,76.9,65.6,61.1,61.0,58.6,57.0,87,79,58,29.93,29.81,7,1,0,0.00
2013-6-8,73.5,65.0,60.8,61.0,58.4,57.0,88,80,63,29.92,29.81,8,2,0,0.00
2013-6-9,75.7,65.4,60.6,62.0,58.1,56.0,89,78,61,29.94,29.88,7,1,0,0.00
2013-6-10,78.0,67.5,58.5,59.0,56.5,53.0,85,69,51,29.97,29.91,5,1,0,0.00
2013-6-11,87.1,67.5,52.0,64.0,57.4,49.0,91,72,41,29.96,29.89,9,1,0,0.00
2013-6-12,76.4,65.9,61.8,62.0,60.0,59.0,91,82,61,30.04,29.94,5,1,0,0.00
2013-6-13,79.6,68.9,63.3,62.0,59.7,58.0,85,74,53,30.02,29.91,8,1,0,0.00
2013-6-14,74.9,65.8,59.0,61.0,57.8,53.0,87,76,58,29.94,29.87,9,2,0,0.00
2013-6-15,76.1,65.9,59.0,58.0,56.0,53.0,85,72,52,30.00,29.91,7,1,0,0.00
2013-6-16,79.4,68.4,59.2,60.0,57.2,54.0,86,69,50,30.05,29.95,9,1,0,0.00
2013-6-17,82.5,68.7,58.7,62.0,59.0,54.0,92,73,50,30.00,29.90,6,1,0,0.00
2013-6-18,79.5,66.2,56.3,62.0,58.5,54.0,95,78,54,29.94,29.86,9,2,0,0.00
2013-6-19,81.4,69.2,61.0,61.0,58.5,56.0,89,70,46,29.89,29.81,7,1,0,0.00
2013-6-20,83.7,68.2,54.2,62.0,55.1,50.0,92,66,37,29.88,29.82,6,1,0,0.00
2013-6-21,82.3,67.3,51.6,62.0,54.6,46.0,82,66,42,29.91,29.85,5,1,0,0.00
2013-6-22,82.3,67.2,54.8,61.0,56.6,50.0,86,71,45,29.93,29.83,7,1,0,0.00
2013-6-23,76.0,66.4,61.6,60.0,57.8,55.0,85,75,56,29.90,29.81,8,1,0,0.00
2013-6-24,76.7,66.4,60.7,61.0,58.4,56.0,90,76,57,29.96,29.85,7,1,0,0.00
2013-6-25,84.0,69.8,56.3,65.0,59.9,53.0,88,72,51,30.00,29.90,8,1,0,0.00
2013-6-26,88.6,74.4,61.8,66.0,63.0,57.0,90,70,45,30.00,29.90,6,1,0,0.00
2013-6-27,93.8,74.2,59.6,67.0,63.1,57.0,93,72,37,30.03,29.97,6,1,0,0.00
2013-6-28,96.0,76.4,60.0,67.0,62.9,57.0,94,68,34,30.01,29.87,5,1,0,0.00
2013-6-29,95.8,77.8,61.3,69.0,63.6,57.0,88,65,35,29.89,29.74,5,1,0,0.00
2013-6-30,90.0,74.0,61.8,68.0,63.3,57.0,86,71,46,29.83,29.72,6,1,0,0.00
2013-7-1,96.1,74.4,61.8,68.0,62.5,58.0,89,71,28,29.90,29.82,6,1,0,0.00
2013-7-2,83.3,71.1,60.1,69.0,63.1,57.0,93,77,55,30.00,29.89,7,1,0,0.00
2013-7-3,89.3,72.9,63.4,68.0,64.3,60.0,93,76,49,29.95,29.81,7,1,0,0.00
2013-7-4,88.6,72.2,64.0,66.0,63.2,60.0,93,75,45,29.85,29.77,8,1,0,0.00
2013-7-5,82.8,71.2,64.7,66.0,62.7,60.0,87,75,55,29.87,29.79,9,1,0,0.00
2013-7-6,82.1,71.1,66.7,66.0,63.4,62.0,87,77,58,29.84,29.77,6,1,0,0.00
2013-7-7,87.9,74.5,63.7,67.0,64.2,59.0,88,72,48,29.87,29.77,6,1,0,0.00
2013-7-8,96.4,73.8,59.6,68.0,62.1,57.0,95,72,31,29.94,29.84,9,1,0,0.00
2013-7-9,86.1,73.1,59.9,68.0,61.9,55.0,86,70,46,30.02,29.91,7,1,0,0.00
2013-7-10,83.9,72.7,67.4,69.0,65.0,60.0,88,78,45,29.99,29.91,7,1,0,0.00
2013-7-11,79.8,70.6,66.2,69.0,65.3,63.0,90,84,69,29.98,29.90,6,0,0,0.00
2013-7-12,86.6,73.5,66.8,68.0,65.2,63.0,90,77,52,29.95,29.85,7,1,0,0.00
2013-7-13,86.5,73.8,65.5,67.0,64.1,61.0,90,73,49,29.96,29.86,6,1,0,0.00
2013-7-14,90.0,74.3,63.5,68.0,63.6,59.0,90,72,36,29.94,29.84,7,1,0,0.00
2013-7-15,89.5,74.3,61.6,68.0,61.8,53.0,89,68,34,29.88,29.80,7,1,0,0.00
2013-7-16,88.4,71.9,58.1,63.0,57.8,51.0,88,64,35,30.00,29.87,6,1,0,0.00
2013-7-17,91.9,72.7,50.4,62.0,52.8,45.0,85,55,20,30.02,29.94,7,1,0,0.00
2013-7-18,87.2,70.4,53.4,65.0,57.9,47.0,87,66,46,30.01,29.86,6,1,0,0.00
2013-7-19,83.3,70.5,59.8,66.0,61.9,56.0,91,76,55,29.92,29.84,6,1,0,0.00
2013-7-20,76.7,68.6,64.7,65.0,61.9,60.0,86,80,66,29.89,29.81,5,1,0,0.00
2013-7-21,75.2,68.5,65.1,65.0,62.9,61.0,89,82,70,29.94,29.80,6,0,0,0.00
2013-7-22,84.4,72.7,64.4,67.0,63.6,61.0,89,74,55,29.99,29.93,11,1,0,0.00
2013-7-23,85.5,71.7,62.6,66.0,60.9,-99.9,89,72,50,30.03,29.93,6,-10,0,0.00
2013-7-24,86.5,73.3,61.4,66.0,62.6,57.0,88,71,50,29.98,29.89,7,1,0,0.00
2013-7-25,84.6,71.5,63.9,65.0,62.4,61.0,90,75,51,30.03,29.93,7,1,0,0.00
2013-7-26,87.8,71.8,65.3,67.0,63.6,62.0,89,77,50,30.09,29.98,6,1,0,0.00
2013-7-27,83.9,70.2,63.7,66.0,63.1,60.0,92,79,55,30.03,29.89,8,1,0,0.00
2013-7-28,79.0,67.9,62.3,64.0,61.1,59.0,92,80,58,29.95,29.89,7,1,0,0.00
2013-7-29,80.0,68.7,60.9,61.0,58.7,56.0,85,72,52,30.06,29.93,6,1,0,0.00
2013-7-30,81.2,68.4,57.5,61.0,58.1,53.0,87,71,50,30.13,30.04,8,1,0,0.00
2013-7-31,77.9,65.3,54.2,61.0,57.0,50.0,88,75,56,30.12,30.01,8,1,0,0.00
2013-8-1,80.7,70.1,63.0,61.0,59.2,58.0,87,70,50,30.04,29.92,9,1,0,0.00
2013-8-2,80.5,68.5,60.3,62.0,59.5,55.0,86,74,53,29.99,29.92,6,1,0,0.00
2013-8-3,79.5,67.4,57.9,63.0,59.0,54.0,87,76,55,30.02,29.94,5,1,0,0.00
2013-8-4,82.6,70.0,60.2,62.0,60.3,56.0,88,73,50,30.02,29.93,6,1,0,0.00
2013-8-5,84.8,67.6,57.2,63.0,59.3,55.0,95,77,47,30.02,29.94,7,1,0,0.00
2013-8-6,79.6,68.9,61.1,62.0,59.4,57.0,88,73,52,30.04,29.97,6,0,0,0.00
2013-8-7,81.6,69.1,59.9,62.0,59.2,54.0,89,73,50,30.09,29.98,7,1,0,0.00
2013-8-8,84.4,65.9,51.2,62.0,55.9,48.0,88,72,41,30.02,29.91,4,0,0,0.00
2013-8-9,79.1,65.9,57.1,61.0,57.9,53.0,91,77,54,29.99,29.93,7,1,0,0.00
2013-8-10,78.9,66.6,56.9,60.0,57.4,53.0,88,74,52,30.05,29.97,8,1,0,0.00
2013-8-11,83.1,67.4,55.7,62.0,58.4,51.0,92,75,49,30.02,29.90,5,1,0,0.00
2013-8-12,82.2,68.9,61.8,63.0,60.6,58.0,91,76,52,29.99,29.90,7,1,0,0.00
2013-8-13,86.2,69.0,61.1,65.0,61.0,59.0,92,78,48,29.99,29.88,7,1,0,0.00
2013-8-14,86.0,69.1,60.3,65.0,61.1,58.0,93,78,50,29.94,29.85,6,1,0,0.00
2013-8-15,88.0,70.4,60.2,67.0,61.9,58.0,93,77,47,29.96,29.89,6,0,0,0.00
2013-8-16,90.2,73.1,58.8,67.0,61.7,55.0,89,70,41,29.97,29.90,7,1,0,0.00
2013-8-17,91.5,72.6,58.7,67.0,61.2,55.0,90,70,40,29.96,29.82,7,1,0,0.00
2013-8-18,83.4,69.2,58.9,66.0,61.0,55.0,94,77,54,29.93,29.83,7,1,0,0.00
2013-8-19,84.6,70.1,62.2,66.0,62.3,58.0,89,78,52,29.96,29.87,6,1,0,0.00
2013-8-20,90.9,73.4,61.4,66.0,61.9,58.0,90,70,40,29.94,29.83,7,1,0,0.00
2013-8-21,95.0,74.7,57.0,65.0,59.3,54.0,90,63,30,29.93,29.82,6,1,0,0.00
2013-8-22,98.1,78.1,58.1,64.0,55.9,39.0,84,53,13,29.93,29.79,7,1,0,0.00
2013-8-23,94.5,74.1,57.8,63.0,58.7,52.0,82,63,32,29.88,29.74,7,1,0,0.00
2013-8-24,90.0,68.9,53.8,64.0,58.6,50.0,92,72,39,29.90,29.76,6,1,0,0.00
2013-8-25,92.7,71.0,55.0,64.0,58.8,51.0,94,70,24,29.92,29.85,4,0,0,0.00
2013-8-26,93.7,77.4,63.5,67.0,60.3,55.0,79,58,36,29.93,29.80,5,0,0,0.00
2013-8-27,93.1,78.1,66.7,65.0,60.7,51.0,84,59,28,29.85,29.76,7,1,0,0.00
2013-8-28,97.4,79.8,64.1,65.0,60.3,56.0,77,55,31,29.89,29.77,7,1,0,0.00
2013-8-29,97.3,81.3,64.9,64.0,59.5,55.0,76,50,30,29.93,29.86,5,0,0,0.00
2013-8-30,93.3,83.3,73.4,73.0,66.1,55.0,72,57,46,29.97,29.90,9,1,0,0.00
2013-8-31,93.5,81.9,74.1,73.0,69.7,66.0,78,68,52,29.96,29.88,7,1,0,0.00
2013-9-1,93.5,79.9,70.2,72.0,68.4,64.0,82,69,48,29.94,29.84,8,1,0,0.00
2013-9-2,93.5,77.8,64.4,70.0,66.9,62.0,91,71,44,29.92,29.80,7,1,0,0.00
2013-9-3,97.6,81.7,68.7,69.0,65.0,62.0,84,61,31,29.89,29.81,8,1,0,0.00
2013-9-4,100.7,83.1,66.4,68.0,61.7,58.0,77,52,27,29.90,29.82,6,1,0,0.00
2013-9-5,100.0,82.1,67.6,66.0,61.5,54.0,77,54,25,29.88,29.81,7,1,0,0.00
2013-9-6,101.4,80.2,66.7,67.0,60.4,53.0,73,54,22,29.87,29.77,5,0,0,0.00
2013-9-7,99.3,79.9,65.1,65.0,60.4,52.0,80,55,21,29.86,29.79,5,0,0,0.00
2013-9-8,91.8,75.4,61.8,65.0,58.8,53.0,85,61,28,29.85,29.75,6,0,0,0.00
2013-9-9,84.1,71.0,60.9,64.0,59.2,53.0,84,68,46,29.83,29.75,7,1,0,0.00
2013-9-10,80.3,68.9,60.5,63.0,60.2,56.0,88,75,55,29.96,29.82,5,1,0,0.00
2013-9-11,82.7,68.8,59.8,63.0,59.4,54.0,87,73,51,30.01,29.92,7,1,0,0.00
2013-9-12,90.9,70.2,53.1,65.0,58.0,50.0,90,68,42,29.95,29.82,9,1,0,0.00
2013-9-13,91.3,70.4,51.6,66.0,57.1,46.0,83,65,41,29.85,29.67,4,0,0,0.00
2013-9-14,93.1,71.7,54.1,67.0,59.2,50.0,86,68,39,29.73,29.62,5,0,0,0.00
2013-9-15,94.4,73.9,59.4,68.0,61.1,55.0,93,68,37,29.78,29.69,8,0,0,0.00
2013-9-16,92.0,72.7,56.0,67.0,59.1,52.0,87,66,34,29.82,29.73,8,1,0,0.00
2013-9-17,79.7,67.2,57.7,65.0,60.0,54.0,93,79,56,29.84,29.74,5,0,0,0.00
2013-9-18,78.1,68.2,59.4,61.0,58.7,54.0,87,73,55,29.82,29.76,8,1,0,0.00
2013-9-19,80.5,66.8,53.6,64.0,58.7,50.0,90,76,56,29.85,29.78,8,1,0,0.00
2013-9-20,70.9,67.2,64.4,63.0,61.3,60.0,87,81,76,29.90,29.83,4,1,0,0.00
2013-9-21,78.3,69.1,62.6,61.0,59.5,57.0,84,72,54,29.92,29.82,7,1,0,0.00
2013-9-22,76.6,65.1,54.7,61.0,55.5,49.0,92,73,50,29.87,29.80,7,1,0,0.00
2013-9-23,92.6,70.1,49.7,57.0,49.7,46.0,88,56,21,29.91,29.81,7,1,0,0.00
2013-9-24,89.0,69.8,51.7,61.0,49.5,42.0,72,53,24,29.93,29.85,5,0,0,0.00
2013-9-25,76.4,64.3,49.5,61.0,54.4,42.0,84,71,57,29.88,29.73,9,2,0,0.00
2013-9-26,75.2,65.5,51.8,57.0,52.4,43.0,82,64,42,29.91,29.74,11,2,0,0.00
2013-9-27,83.0,63.3,44.7,56.0,42.7,34.0,84,52,22,30.01,29.90,6,1,0,0.00
2013-9-28,89.5,66.1,43.8,41.0,34.9,31.0,63,37,13,30.06,29.96,7,1,0,0.00
2013-9-29,89.6,67.0,45.2,43.0,35.3,28.0,62,36,11,30.07,29.97,5,1,0,0.00
2013-9-30,86.6,65.7,45.1,60.0,43.3,31.0,75,48,23,30.01,29.87,6,1,0,0.00
2013-10-1,81.4,63.2,47.0,61.0,52.8,40.0,86,70,47,29.95,29.88,6,1,0,0.00
2013-10-2,63.2,63.2,63.1,58.0,58.0,58.0,83,83,83,29.95,29.95,0,0,0,0.00
2013-10-3,72.9,68.5,64.5,61.0,59.4,57.0,84,73,61,29.94,29.84,9,2,0,0.00
2013-10-4,89.3,70.4,55.4,60.0,52.6,18.0,89,62,8,30.03,29.89,6,1,0,0.00
2013-10-5,95.9,75.3,53.8,44.0,27.1,13.0,52,20,5,30.10,30.01,6,1,0,0.00
2013-10-6,93.4,69.0,45.4,36.0,26.0,17.0,49,25,7,30.09,29.96,7,1,0,0.00
2013-10-7,86.5,65.0,49.1,58.0,38.9,23.0,63,40,20,29.99,29.91,8,0,0,0.00
2013-10-8,72.4,60.9,49.6,57.0,49.1,38.0,74,65,58,29.95,29.84,10,1,0,0.00
2013-10-9,64.3,58.3,50.5,55.0,51.4,49.0,95,78,62,29.85,29.74,12,2,0,0.53
2013-10-10,69.3,56.7,45.3,56.0,49.2,44.0,97,79,48,30.03,29.83,6,0,0,0.10
2013-10-11,77.1,59.5,44.7,58.0,50.5,43.0,95,75,41,30.06,29.94,7,1,0,0.00
2013-10-12,75.9,60.2,45.8,60.0,52.8,44.0,95,78,50,29.99,29.90,5,0,0,0.01
2013-10-13,70.7,61.2,50.4,57.0,54.1,47.0,92,78,61,30.04,29.95,6,1,0,0.00
2013-10-14,85.5,62.7,44.3,58.0,49.7,42.0,95,68,24,30.04,29.89,4,0,0,0.00
2013-10-15,86.5,63.9,45.0,50.0,41.5,34.0,86,53,16,29.99,29.88,5,0,0,0.00
2013-10-16,86.8,64.7,45.1,47.0,36.0,27.0,78,44,12,30.06,29.98,6,0,0,0.00
2013-10-17,84.2,62.4,44.1,47.0,39.0,34.0,72,47,19,30.05,29.93,5,0,0,0.00
2013-10-18,86.9,63.3,43.5,56.0,44.7,36.0,79,55,23,30.02,29.92,4,0,0,0.00
2013-10-19,88.2,63.2,42.8,59.0,46.5,38.0,83,60,19,30.02,29.95,4,0,0,0.00
2013-10-20,80.9,58.9,39.6,59.0,48.9,35.0,90,72,44,30.01,29.91,4,0,0,0.00
2013-10-21,80.3,61.6,48.9,59.0,53.8,48.0,96,79,43,30.00,29.91,4,0,0,0.00
2013-10-22,77.8,60.1,48.7,60.0,54.7,46.0,95,84,53,30.02,29.91,5,1,0,0.00
2013-10-23,71.6,63.1,58.8,58.0,55.9,54.0,88,78,61,29.98,29.91,8,0,0,0.00
2013-10-24,72.6,63.4,58.0,57.0,55.5,53.0,85,76,57,30.07,29.96,6,1,0,0.00
2013-10-25,77.1,62.6,52.9,59.0,54.7,49.0,90,77,53,30.13,30.00,6,0,0,0.00
2013-10-26,81.7,61.5,44.9,62.0,53.7,43.0,94,78,48,30.11,29.96,3,0,0,0.00
2013-10-27,76.3,59.7,46.2,61.0,53.8,44.0,95,82,56,30.00,29.84,7,1,0,0.00
2013-10-28,64.7,59.8,48.9,57.0,52.6,45.0,91,77,62,29.96,29.85,9,1,0,0.01
2013-10-29,68.5,54.9,43.5,52.0,46.3,41.0,94,75,49,30.04,29.95,7,0,0,0.01
2013-10-30,71.2,55.1,41.9,55.0,46.7,40.0,93,75,50,30.08,30.00,7,1,0,0.00
2013-10-31,79.9,57.7,39.6,49.0,41.7,37.0,92,61,26,30.10,29.99,5,0,0,0.00
2013-11-1,88.8,61.4,40.3,41.0,37.0,34.0,79,48,16,30.11,29.93,4,0,0,0.00
2013-11-2,82.3,60.8,44.0,57.0,42.7,33.0,89,57,19,30.01,29.89,10,1,0,0.00
2013-11-3,69.9,59.0,45.5,56.0,50.5,43.0,90,74,58,29.95,29.84,5,1,0,0.00
2013-11-4,66.2,58.8,45.4,53.0,49.8,42.0,88,72,58,29.96,29.81,6,1,0,0.00
2013-11-5,78.4,56.5,41.2,55.0,36.2,23.0,95,56,14,30.15,29.96,6,0,0,0.00
2013-11-6,82.7,56.5,35.3,36.0,26.1,17.0,59,37,11,30.21,30.10,5,0,0,0.00
2013-11-7,88.0,61.3,40.1,32.0,27.0,19.0,57,33,8,30.13,29.99,5,0,0,0.00
2013-11-8,80.5,57.7,39.2,53.0,35.3,24.0,73,47,15,30.05,29.94,5,0,0,0.00
2013-11-9,79.1,54.2,34.8,50.0,34.3,28.0,82,53,16,30.10,30.01,5,0,0,0.00
2013-11-10,85.5,57.5,42.5,47.0,32.4,14.0,66,46,7,30.16,30.03,5,0,0,0.00
2013-11-11,80.3,57.4,37.6,56.0,41.8,29.0,84,60,30,30.15,30.02,5,0,0,0.00
2013-11-12,79.2,59.3,43.7,55.0,45.5,39.0,85,64,31,30.18,30.06,3,0,0,0.00
2013-11-13,93.7,65.4,45.2,45.0,40.2,36.0,78,47,13,30.07,29.89,4,0,0,0.00
2013-11-14,91.0,64.4,46.5,52.0,36.5,31.0,63,42,13,29.94,29.80,5,0,0,0.00
2013-11-15,67.1,58.9,48.3,57.0,51.7,36.0,88,77,62,29.80,29.69,8,2,0,0.00
2013-11-16,67.0,57.1,48.7,56.0,48.3,44.0,95,75,49,29.97,29.78,8,1,0,0.00
2013-11-17,69.0,56.5,45.8,53.0,48.2,42.0,90,75,55,30.11,29.96,7,0,0,0.00
2013-11-18,69.8,56.5,43.1,56.0,49.1,41.0,94,77,59,30.17,30.06,8,1,0,0.00
2013-11-19,66.8,58.9,52.1,55.0,52.4,48.0,89,79,62,30.10,29.96,4,0,0,0.00
2013-11-20,65.8,58.6,50.0,56.0,53.4,47.0,92,83,68,30.00,29.91,4,0,0,0.06
2013-11-21,61.2,58.6,53.0,59.0,56.9,52.0,96,94,90,29.91,29.86,6,1,0,0.62
2013-11-22,56.6,52.0,46.4,54.0,48.8,44.0,100,89,70,29.97,29.84,4,0,0,0.08
2013-11-23,67.5,52.1,42.5,53.0,45.1,41.0,97,80,48,30.11,29.97,6,0,0,0.00
2013-11-24,66.8,51.1,38.5,53.0,45.2,37.0,98,82,58,30.21,30.10,6,0,0,0.01
2013-11-25,72.9,52.6,38.3,52.0,43.4,37.0,98,75,39,30.25,30.16,5,0,0,0.01
2013-11-26,75.9,55.8,39.8,51.0,43.5,38.0,94,69,28,30.21,30.05,5,0,0,0.00
2013-11-27,75.6,57.2,43.6,49.0,43.5,39.0,86,64,32,30.05,29.89,5,0,0,0.00
2013-11-28,68.8,52.4,39.4,52.0,43.4,36.0,91,74,45,30.08,29.91,9,1,0,0.00
2013-11-29,65.0,55.6,48.6,58.0,52.2,45.0,94,89,71,30.20,30.08,0,0,0,0.07